カタログに戻る

STARLINK-34584

運用中通信VLEO
NORAD 64697·PAYLOAD·🇺🇸 United States

打ち上げ Jun 28, 2025 から Vandenberg Space Force Base

Loading…

次のパス (今後24時間)

TLE

最新Source: CelesTrak SupGP

元期: Sep 15, 2026, 03:32 UTC

1 64697C 25142B   26258.14770833 -.00030575  00000+0 -10636-2 0  2589
2 64697  70.0016 194.9490 0003199 273.2427 145.8476 15.29593892    12

AllMySatでSTARLINK-34584をリアルタイム追跡

Download on the App Store